Location: Newark
(39.6172°N, 96.8533°W)
Time: 06:03:29
(UTC+00:00)

Envisat - Pass Details

Date: 28 January 2020
Orbit: 764 x 766 km, 98.1° (Epoch: 27 February)

Event Time Altitude Azimuth Distance (km) Brightness Sun altitude
Rises 00:32:20 0° 174° (S) 3,217 6.4 -10.1°
Reaches altitude 10° 00:34:39 10° 178° (S) 2,295 5.6 -10.6°
Maximum altitude 00:39:39 63° 259° (W) 855 3.6 -11.5°
Drops below altitude 10° 00:44:43 10° 341° (NNW) 2,311 5.6 -12.4°
Sets 00:47:03 0° 344° (NNW) 3,241 6.3 -12.9°
